Home > Weather > Walvis Bay > Past weeks

Flag for Namibia Weather for the Past 2 Weeks in Walvis Bay, Namibia

Now
75 °F

Sunny.


Feels Like: 78 °F
Forecast: 66 / 76 °F
Wind: 7 mph from Northwest

Location: Walvis Bay

Current Time: Feb 8, 2016 at 3:06:00 PM

Latest Report: Feb 8, 2016 at 2:00 PM


Visibility: 10 mi

Pressure: 29.98 "Hg

Humidity: 57%

Dew point: 59 °F

Location of Walvis BayLocation

Historic Weather in Walvis Bay — Graph

°F

Walvis Bay Temperature Yesterday

Maximum temperature yesterday: 75 °F (at 2:00 PM)
Minimum temperature yesterday: 64 °F (at 2:00 AM)
Average temperature yesterday: 68 °F

High & Low Weather Summary for the Past Weeks

 TemperatureHumidityPressure
High90 °F (Jan 30, 2:00 PM)88% (Jan 26, 6:00 AM)30.07 "Hg (Jan 26, 6:00 AM)
Low57 °F (Jan 28, 6:00 AM)38% (Jan 30, 2:00 PM)29.77 "Hg (Jan 31, 5:00 PM)
Average71 °F70%29.95 "Hg
* Reported Jan 24 2:00 PM — Feb 8 2:00 PM, Walvis Bay, Weather by CustomWeather, © 2016

Note: Actual official high and low records may vary slightly from our data, if they occured in-between our weather recording intervals... More about our weather records

Advertising

Walvis Bay Weather History for the Previous 24 Hours

 ConditionsComfort  
Time TempWeatherWind HumidityBarometerVisibility
2:00 PM
Mon, Feb 8
75 °FSunny.7 mph57%29.98 "Hg10 mi
1:00 PM73 °FSunny.7 mph61%30.01 "Hg10 mi
12:00 PM70 °FScattered clouds.7 mph73%30.01 "HgN/A
11:00 AM70 °FPartly sunny.7 mph73%30.04 "HgN/A
10:00 AM66 °FOvercast.5 mph83%30.04 "HgN/A
9:00 AM64 °FOvercast.8 mph83%30.01 "HgN/A
8:00 AM64 °FLow clouds.7 mph83%30.01 "HgN/A
7:00 AM63 °FLow clouds.8 mph88%30.01 "HgN/A
6:00 AM63 °FMild.8 mph88%29.98 "HgN/A
5:00 AM63 °FMild.10 mph88%29.98 "HgN/A
4:00 AM64 °FMild.12 mph83%29.98 "HgN/A
3:00 AM64 °FMild.10 mph83%29.98 "HgN/A
2:00 AM64 °FMild.9 mph83%30.01 "HgN/A
1:00 AM64 °FMild.8 mph83%30.01 "HgN/A
12:00 AM64 °FMild.7 mph83%30.01 "HgN/A
11:00 PM
Sun, Feb 7
64 °FMild.5 mph83%30.01 "HgN/A
10:00 PM64 °FMild.6 mph83%30.01 "HgN/A
9:00 PM66 °FMild.7 mph78%30.01 "HgN/A
8:00 PM68 °FMild.8 mph73%29.98 "HgN/A
7:00 PM72 °FMild.7 mph65%29.95 "HgN/A
6:00 PM73 °FMild.9 mph65%29.95 "HgN/A
5:00 PM75 °FMild.10 mph57%29.95 "HgN/A
4:00 PM75 °FMild.8 mph61%29.98 "HgN/A
3:00 PM73 °FMild.9 mph65%30.01 "HgN/A
Weather by CustomWeather, © 2016

See weather overviewHow to use our weather pages